• In Hungary
  • List of Countries
  • For 7 days
  • Water Temperature
  • Satellite Maps
  • Weather Map
  • News
  • Weather Widgets
  • user-avatar
    Login

    Hourly Weather Lucknow

    Today, 16 July, Monday

    Time Temperature Precipitation Wind Pressure Humidity
    00:00 +36°C° 0.1 mm 5 mps 735 mmHg 58%
    01:00 +35°C° 0.1 mm 5 mps 735 mmHg 60%
    02:00 +35°C° 0.1 mm 5 mps 735 mmHg 61%
    03:00 +34°C° 0 mm 5 mps 735 mmHg 63%
    04:00 +34°C° 0 mm 5 mps 735 mmHg 65%
    05:00 +34°C° 0 mm 4 mps 736 mmHg 68%
    06:00 +34°C° 0.2 mm 5 mps 736 mmHg 66%
    07:00 +35°C° 0.2 mm 5 mps 736 mmHg 64%
    08:00 +35°C° 0.2 mm 6 mps 736 mmHg 62%
    09:00 +38°C° 0 mm 6 mps 736 mmHg 57%
    10:00 +39°C° 0 mm 6 mps 736 mmHg 51%
    11:00 +41°C° 0 mm 4 mps 736 mmHg 44%
    12:00 +41°C° 0 mm 4 mps 735 mmHg 43%
    13:00 +42°C° 0 mm 4 mps 735 mmHg 42%
    14:00 +42°C° 0 mm 4 mps 734 mmHg 41%
    15:00 +42°C° 0 mm 4 mps 734 mmHg 41%
    16:00 +42°C° 0 mm 4 mps 733 mmHg 42%
    17:00 +39°C° 0 mm 3 mps 734 mmHg 47%
    18:00 +38°C° 0 mm 3 mps 734 mmHg 48%
    19:00 +38°C° 0 mm 3 mps 735 mmHg 50%
    20:00 +37°C° 0 mm 3 mps 735 mmHg 51%
    21:00 +37°C° 0 mm 3 mps 735 mmHg 53%
    22:00 +37°C° 0 mm 3 mps 735 mmHg 54%
    23:00 +36°C° 0 mm 3 mps 736 mmHg 56%

    Tomorrow, 17 July, Tuesday

    Time Temperature Precipitation Wind Pressure Humidity
    00:00 +36°C° 0 mm 3 mps 735 mmHg 57%
    01:00 +35°C° 0 mm 4 mps 735 mmHg 59%
    02:00 +35°C° 0 mm 4 mps 735 mmHg 60%
    03:00 +35°C° 0 mm 4 mps 735 mmHg 62%
    04:00 +34°C° 0 mm 4 mps 735 mmHg 63%
    05:00 +34°C° 0 mm 4 mps 735 mmHg 64%
    06:00 +35°C° 0 mm 5 mps 736 mmHg 62%
    07:00 +35°C° 0 mm 5 mps 736 mmHg 59%
    08:00 +36°C° 0 mm 6 mps 737 mmHg 56%
    09:00 +38°C° 0 mm 6 mps 736 mmHg 52%
    10:00 +39°C° 0 mm 6 mps 736 mmHg 48%
    11:00 +41°C° 0 mm 6 mps 736 mmHg 44%
    12:00 +41°C° 0 mm 6 mps 735 mmHg 42%
    13:00 +42°C° 0 mm 6 mps 735 mmHg 41%
    14:00 +42°C° 0 mm 6 mps 734 mmHg 39%
    15:00 +42°C° 0 mm 6 mps 734 mmHg 40%
    16:00 +42°C° 0 mm 5 mps 733 mmHg 41%
    17:00 +41°C° 0 mm 5 mps 733 mmHg 41%
    18:00 +41°C° 0 mm 5 mps 733 mmHg 44%
    19:00 +40°C° 0 mm 4 mps 733 mmHg 47%
    20:00 +38°C° 0 mm 4 mps 734 mmHg 50%
    21:00 +38°C° 0 mm 4 mps 734 mmHg 51%
    22:00 +37°C° 0 mm 4 mps 734 mmHg 52%
    23:00 +37°C° 0 mm 4 mps 735 mmHg 54%

    Day after tomorrow, 18 July, Wednesday

    Time Temperature Precipitation Wind Pressure Humidity
    00:00 +36°C° 0 mm 4 mps 735 mmHg 55%
    01:00 +36°C° 0 mm 5 mps 735 mmHg 57%
    02:00 +36°C° 0 mm 5 mps 735 mmHg 59%
    03:00 +35°C° 0.1 mm 5 mps 735 mmHg 62%
    04:00 +35°C° 0.1 mm 5 mps 735 mmHg 64%
    05:00 +34°C° 0.1 mm 5 mps 735 mmHg 67%
    06:00 +35°C° 0 mm 5 mps 735 mmHg 64%
    07:00 +36°C° 0 mm 6 mps 736 mmHg 61%
    08:00 +36°C° 0 mm 6 mps 736 mmHg 59%
    09:00 +39°C° 0 mm 6 mps 736 mmHg 54%
    10:00 +40°C° 0 mm 6 mps 736 mmHg 50%
    11:00 +41°C° 0 mm 6 mps 736 mmHg 46%
    12:00 +41°C° 0 mm 6 mps 736 mmHg 44%
    13:00 +42°C° 0 mm 6 mps 735 mmHg 42%
    14:00 +42°C° 0 mm 6 mps 735 mmHg 41%
    15:00 +42°C° 0 mm 5 mps 734 mmHg 42%
    16:00 +42°C° 0 mm 5 mps 734 mmHg 42%
    17:00 +41°C° 0 mm 5 mps 733 mmHg 43%
    18:00 +41°C° 0 mm 4 mps 734 mmHg 45%
    19:00 +40°C° 0 mm 4 mps 734 mmHg 48%
    20:00 +38°C° 0 mm 4 mps 734 mmHg 50%
    21:00 +38°C° 0 mm 4 mps 734 mmHg 51%
    22:00 +37°C° 0 mm 4 mps 734 mmHg 52%
    23:00 +37°C° 0 mm 4 mps 735 mmHg 53%

    19 July, Thursday

    Time Temperature Precipitation Wind Pressure Humidity
    00:00 +36°C° 0.1 mm 4 mps 734 mmHg 55%
    01:00 +36°C° 0.1 mm 4 mps 734 mmHg 57%
    02:00 +36°C° 0.1 mm 3 mps 734 mmHg 58%
    03:00 +35°C° 0 mm 4 mps 734 mmHg 60%
    04:00 +35°C° 0 mm 4 mps 734 mmHg 61%
    05:00 +34°C° 0 mm 4 mps 735 mmHg 63%
    06:00 +35°C° 0.3 mm 4 mps 735 mmHg 61%
    07:00 +36°C° 0.3 mm 5 mps 735 mmHg 60%
    08:00 +36°C° 0.3 mm 5 mps 736 mmHg 58%
    09:00 +39°C° 0.3 mm 5 mps 736 mmHg 54%
    10:00 +40°C° 0.3 mm 5 mps 736 mmHg 50%
    11:00 +41°C° 0.3 mm 5 mps 736 mmHg 45%
    12:00 +42°C° 0 mm 4 mps 735 mmHg 44%
    13:00 +42°C° 0 mm 4 mps 734 mmHg 42%
    14:00 +42°C° 0 mm 3 mps 734 mmHg 41%
    15:00 +42°C° 0 mm 3 mps 734 mmHg 41%
    16:00 +41°C° 0 mm 2 mps 733 mmHg 42%
    17:00 +40°C° 0 mm 2 mps 733 mmHg 43%
    18:00 +40°C° 0 mm 2 mps 733 mmHg 45%
    19:00 +39°C° 0 mm 2 mps 733 mmHg 47%
    20:00 +39°C° 0 mm 2 mps 734 mmHg 49%
    21:00 +38°C° 0 mm 2 mps 734 mmHg 50%
    22:00 +37°C° 0 mm 1 mps 734 mmHg 52%
    23:00 +36°C° 0 mm 1 mps 734 mmHg 53%

    20 July, Friday

    Time Temperature Precipitation Wind Pressure Humidity
    00:00 +37°C° 0 mm 2 mps 734 mmHg 56%
    01:00 +36°C° 0 mm 2 mps 733 mmHg 58%
    02:00 +36°C° 0 mm 3 mps 733 mmHg 60%
    03:00 +35°C° 0.3 mm 3 mps 733 mmHg 62%
    04:00 +35°C° 0.3 mm 3 mps 733 mmHg 64%
    05:00 +35°C° 0.3 mm 3 mps 733 mmHg 66%
    06:00 +35°C° 2.6 mm 3 mps 734 mmHg 65%
    07:00 +36°C° 2.6 mm 3 mps 735 mmHg 63%
    08:00 +36°C° 2.6 mm 3 mps 735 mmHg 62%
    09:00 +37°C° 1.5 mm 3 mps 735 mmHg 59%
    10:00 +37°C° 1.5 mm 3 mps 735 mmHg 56%
    11:00 +38°C° 1.5 mm 2 mps 735 mmHg 53%
    12:00 +38°C° 0.3 mm 3 mps 735 mmHg 52%
    13:00 +38°C° 0.3 mm 3 mps 735 mmHg 52%
    14:00 +39°C° 0.3 mm 3 mps 734 mmHg 52%
    15:00 +38°C° 2.4 mm 3 mps 734 mmHg 56%
    16:00 +37°C° 2.4 mm 3 mps 734 mmHg 61%
    17:00 +36°C° 2.4 mm 3 mps 733 mmHg 65%
    18:00 +35°C° 3.8 mm 2 mps 734 mmHg 69%
    19:00 +34°C° 3.8 mm 2 mps 734 mmHg 73%
    20:00 +32°C° 3.8 mm 2 mps 734 mmHg 77%
    21:00 +32°C° 4.2 mm 2 mps 735 mmHg 79%
    22:00 +32°C° 4.2 mm 2 mps 735 mmHg 81%
    23:00 +31°C° 4.2 mm 2 mps 735 mmHg 84%

    21 July, Saturday

    Time Temperature Precipitation Wind Pressure Humidity
    00:00 +31°C° 1.4 mm 2 mps 734 mmHg 84%
    01:00 +31°C° 1.4 mm 3 mps 734 mmHg 84%
    02:00 +31°C° 1.4 mm 3 mps 734 mmHg 84%
    03:00 +31°C° 2.1 mm 3 mps 734 mmHg 84%
    04:00 +30°C° 2.1 mm 4 mps 734 mmHg 83%
    05:00 +30°C° 2.1 mm 4 mps 734 mmHg 83%
    06:00 +31°C° 2.7 mm 3 mps 735 mmHg 81%
    07:00 +31°C° 2.7 mm 3 mps 735 mmHg 78%
    08:00 +33°C° 2.7 mm 3 mps 736 mmHg 76%
    09:00 +34°C° 0.8 mm 3 mps 736 mmHg 72%
    10:00 +34°C° 0.8 mm 3 mps 736 mmHg 69%
    11:00 +35°C° 0.8 mm 2 mps 736 mmHg 65%
    12:00 +36°C° 0.1 mm 3 mps 735 mmHg 63%
    13:00 +36°C° 0.1 mm 3 mps 735 mmHg 60%
    14:00 +37°C° 0.1 mm 3 mps 734 mmHg 57%
    15:00 +37°C° 0 mm 3 mps 734 mmHg 57%
    16:00 +37°C° 0 mm 3 mps 734 mmHg 58%
    17:00 +37°C° 0 mm 4 mps 733 mmHg 58%
    18:00 +36°C° 0 mm 3 mps 734 mmHg 61%
    19:00 +35°C° 0 mm 3 mps 734 mmHg 65%
    20:00 +34°C° 0 mm 3 mps 734 mmHg 68%
    21:00 +34°C° 0 mm 3 mps 734 mmHg 70%
    22:00 +34°C° 0 mm 3 mps 734 mmHg 71%
    23:00 +34°C° 0 mm 3 mps 734 mmHg 72%
    Show more